Regional Weather Roundup
Issued by NWS Green Bay, WI

Home | Current Version | Previous Version | Graphics & Text | Print | Product List | Glossary Off
Versions: 1 2 3 4 5 6 7 8 9 10 11 12 13 14 15 16 17 18 19 20 21 22 23 24 25 26 27 28 29 30 31 32 33 34 35 36 37 38 39 40 41 42 43 44 45 46 47 48 49 50

000
ASUS43 KGRB 161211
RWRGRB

NORTH-CENTRAL AND NORTHEAST WISCONSIN REGIONAL WEATHER ROUNDUP
NATIONAL WEATHER SERVICE GREEN BAY WI
700 AM CDT WED AUG 16 2017

WIZ005-009-010>012-018-019-161300-
NORTH CENTRAL WISCONSIN

CITY           SKY/WX    TMP DP  RH WIND       PRES   REMARKS
IRONWOOD       PTCLDY    56  55  97 NE5       30.06S
MANITOWISH WTR CLOUDY    58  58 100 SE6       30.06F FOG
ARBOR VITAE    CLOUDY    59  58  96 SE3       30.06F FOG
EAGLE RIVER    CLOUDY    57  56  99 S5        30.08F
LAND O LAKES   MOCLDY    53  53 100 CALM      30.10S
RHINELANDER    CLOUDY    58  58 100 SE5       30.08S FOG
PHILLIPS       PTCLDY    54  54 100 CALM      30.04F
ANTIGO         CLOUDY    57  57 100 E7        30.08S
TOMAHAWK       FOG       56  56  97 CALM      30.07S VSB 1/4
MERRILL        FOG       57  57 100 CALM      30.07S VSB 1/4
$$

WIZ013-073-161300-
NORTHEAST WISCONSIN

CITY           SKY/WX    TMP DP  RH WIND       PRES   REMARKS
IRON MOUNTAIN  FOG       52  50  93 CALM      30.09R VSB 1/4
MARINETTE      CLOUDY    56  55  97 CALM      30.08S FOG
OCONTO         CLOUDY    58  56  96 N5        30.07R
$$

WIZ017-030-035>037-045-161300-
CENTRAL WISCONSIN

CITY           SKY/WX    TMP DP  RH WIND       PRES   REMARKS
MEDFORD        CLOUDY    58  57  98 E5        30.03F FOG
WAUSAU         CLOUDY    58  58 100 CALM      30.05S FOG
MOSINEE        FOG       57  57 100 E6        30.07S VSB 1
MARSHFIELD     CLOUDY    61  58  90 E6        30.04S FOG
WISC RAPIDS    CLOUDY    63  59  87 E6        30.05F
STEVENS POINT  CLOUDY    58  58 100 E3        30.06S FOG
WAUPACA        CLOUDY    62  62  98 NE3       30.06S FOG
SHAWANO        CLOUDY    62  59  89 NE6       30.07S
CLINTONVILLE   CLOUDY    59  59 100 NE3       30.06S FOG
WAUTOMA        CLOUDY    61  59  93 CALM      30.05S
$$

WIZ038-039-048-051-161300-
FOX VALLEY

CITY           SKY/WX    TMP DP  RH WIND       PRES   REMARKS
NWS GREEN BAY  CLOUDY    64  64 100 NE6       30.05S
APPLETON       PTCLDY    63  61  94 NE5       30.04S
OSHKOSH        CLOUDY    65  60  84 E6        30.04S
FOND DU LAC    CLOUDY    61  57  87 CALM      30.04S
$$

WIZ022-050-052-161300-
EAST CENTRAL WISCONSIN

CITY           SKY/WX    TMP DP  RH WIND       PRES   REMARKS
EPHRAIM        FAIR      60  59  94 NE5       30.07S
WASHINGTON ISL PTSUNNY   57  57  99 CALM      30.07S
STURGEON BAY   CLOUDY    62  60  93 NE5       30.07S
MANITOWOC      CLOUDY    61  60  97 N5        30.05S
SHEBOYGAN      CLOUDY    61  61 100 CALM      30.04S
$$

LMZ563-521-522-541>543-161300-
LAKESHORE

STATION/POSITION TIME  TEMP    WIND        PRES    VSBY  WAVE
                       AIR SEA DIR/SP/G                  HT/PER
                 (UTC) (F)     (DEG/KT/KT) (MB)    (MI)  (FT/S)
SHEBOYGAN LKSHOR 1200   67      50/  8/  8 1016.6F
KEWAUNEE LKSHORE 1142   65     350/  1/  3 1016.6F
NORTHPORT PIER   1140   63      20/  5/  8 1018.3R
N MID LAKE BUOY  1150   65 67   70/  8/  8 1018.7R         1/ 3
S GREEN BAY BUOY 1200   66 71   80/  8/ 12 1017.7
SISTER BAY LKSHO 1203   65      40/  2/  5   N/A
MENOMINEE LKSHOR 1142   60     360/  8/ 10 1017.9R
$$




USA.gov is the U.S. government's official web portal to all federal, state and local government web resources and services.